This demonstration page uses our WeatherBlox Daily Observations layout. Learn more.

Left ArrowRight Arrow

Hourly Observations for April 30, 2020

Temp ( °F °C ) Dew Point ( °F °C ) Humidity (%) Winds ( mph kmh ) Pressure ( in mb ) Visibility ( mi km ) Precip ( " mm )
12:52 am 00:52 Mostly Cloudy 51 10.6 41 5 69 69 N 7 11 30.03 1017 10 16 0.00 0.00
1:52 am 01:52 Mostly Cloudy 50 10 41 5 71 71 Calm 30.04 1017 10 16 0.00 0.00
2:52 am 02:52 Mostly Clear 49 9.4 41 5 74 74 N 7 11 30.03 1017 10 16 0.00 0.00
3:52 am 03:52 Clear 48 8.9 41 5 77 77 N 5 7 30.03 1017 10 16 0.00 0.00
4:52 am 04:52 Clear 48 8.9 41 5 77 77 Calm 30.03 1017 10 16 0.00 0.00
5:52 am 05:52 Clear 46 7.8 41 5 83 83 N 3 6 30.03 1017 10 16 0.00 0.00
6:52 am 06:52 Mostly Sunny 45 7.2 41 5 86 86 N 5 7 30.04 1017 10 16 0.00 0.00
7:52 am 07:52 Mostly Sunny 50 10 43 6.1 77 77 NNW 5 7 30.05 1018 10 16 0.00 0.00
8:52 am 08:52 Partly Cloudy 55 12.8 43 6.1 64 64 NNW 6 9 30.06 1018 10 16 0.00 0.00
9:52 am 09:52 Partly Cloudy 60 15.6 42 5.6 52 52 N 6 9 30.06 1018 7 11 0.00 0.00
10:52 am 10:52 Partly Cloudy 64 17.8 38 3.3 38 38 WNW 6 9 30.06 1018 10 16 0.00 0.00
11:52 am 11:52 Partly Cloudy 66 18.9 37 2.8 34 34 Calm 30.04 1017 10 16 0.00 0.00
12:52 pm 12:52 Partly Cloudy 69 20.6 35 1.7 29 29 Calm 30.01 1016 10 16 0.00 0.00
1:52 pm 13:52 Partly Cloudy 69 20.6 37 2.8 31 31 VRB 3 6 29.98 1015 10 16 0.00 0.00
2:52 pm 14:52 Partly Cloudy 70 21.1 37 2.8 30 30 SSW 3 6 29.97 1015 10 16 0.00 0.00
3:52 pm 15:52 Partly Cloudy 72 22.2 35 1.7 26 26 SE 10 17 29.94 1014 10 16 0.00 0.00
4:52 pm 16:52 Partly Cloudy 73 22.8 36 2.2 26 26 ESE 7 11 29.91 1013 10 16 0.00 0.00
5:52 pm 17:52 Partly Cloudy 73 22.8 31 -0.6 21 21 S 8 13 29.89 1012 10 16 0.00 0.00
6:52 pm 18:52 Mostly Sunny 72 22.2 35 1.7 26 26 SE 7 11 29.88 1012 10 16 0.00 0.00
7:52 pm 19:52 Mostly Sunny 68 20 37 2.8 32 32 SE 7 11 29.87 1012 10 16 0.00 0.00
8:52 pm 20:52 Mostly Clear 65 18.3 36 2.2 34 34 SE 7 11 29.87 1011 10 16 0.00 0.00
9:52 pm 21:52 Clear 61 16.1 37 2.8 41 41 SE 8 13 29.88 1012 10 16 0.00 0.00
10:52 pm 22:52 Clear 64 17.8 36 2.2 35 35 SSE 6 9 29.87 1011 10 16 0.00 0.00
11:52 pm 23:52 Cloudy 62 16.7 37 2.8 40 40 SSE 9 15 29.86 1011 10 16 0.00 0.00

Powered by AerisWeather